Location: Orin
(42.6533°N, 105.1925°W)
Time: 12:18:31
(UTC-07:00)

N. Korean satellite - Visible Passes

Search period start: 02 December 2020 00:00
Search period end: 12 December 2020 00:00
Orbit: 453 x 503 km, 97.2° (Epoch: 01 December)

Date Brightness Start Highest point End Pass type
(mag) Time Alt. Az. Time Alt. Az. Time Alt. Az.
02 Dec 9.7 04:35:15 10° NE 04:37:31 16° E 04:39:46 10° SE visible
02 Dec 7.2 06:07:38 10° N 06:10:56 33° WNW 06:14:14 10° SW visible
03 Dec 6.4 05:41:04 10° N 05:44:41 74° WNW 05:48:20 10° SSW visible
03 Dec 10.0 17:52:30 10° WSW 17:53:37 11° W 17:54:44 10° WNW visible
04 Dec 7.6 05:14:48 10° NNE 05:18:21 48° E 05:21:54 10° S visible
04 Dec 9.2 17:24:15 10° SSW 17:27:03 23° W 17:29:55 10° NW visible
05 Dec 9.1 04:48:57 10° NE 04:51:54 23° E 04:54:52 10° SSE visible
05 Dec 7.7 06:22:13 10° NNW 06:25:08 23° WNW 06:28:04 10° WSW visible
05 Dec 7.4 16:57:16 10° S 17:00:35 53° W 17:04:01 10° NNW visible
06 Dec 10.1 04:24:08 10° ENE 04:25:21 11° E 04:26:34 10° ESE visible
06 Dec 6.8 05:55:24 10° N 05:58:55 47° WNW 06:02:27 10° SSW visible
07 Dec 6.7 05:28:56 10° NNE 05:32:36 77° ESE 05:36:17 10° S visible
07 Dec 9.7 17:39:10 10° SW 17:41:21 16° W 17:43:35 10° NW visible
08 Dec 8.3 05:02:48 10° NNE 05:06:11 34° E 05:09:34 10° SSE visible
08 Dec 8.2 06:36:53 10° NNW 06:39:14 16° WNW 06:41:34 10° WSW visible
08 Dec 8.5 17:11:40 10° SSW 17:14:48 33° W 17:18:02 10° NNW visible
09 Dec 9.6 04:37:12 10° NE 04:39:39 17° E 04:42:06 10° SE visible
09 Dec 7.3 06:09:45 10° N 06:13:02 31° WNW 06:16:20 10° SW visible
10 Dec 6.5 05:43:04 10° N 05:46:44 69° WNW 05:50:24 10° SSW visible
10 Dec 10.1 17:54:43 10° WSW 17:55:36 11° W 17:56:28 10° WNW visible
11 Dec 7.4 05:16:44 10° NNE 05:20:20 53° E 05:23:57 10° S visible
11 Dec 9.3 17:26:11 10° SSW 17:28:57 22° W 17:31:49 10° NW visible
